QPF
0.21 0.19 0.09 0.03 0.01 0.00 0.00 0.00 0.00 0.00 0.00 0.00 0.00 0.00 0.00 0.00 0.00 0.00 0.00 0.00 0.00 0.00 0.00 0.00 0.00 0.00 0.00 0.00 0.00 0.00 0.00 0.00 0.00 0.00 0.00 0.00 0.00 0.00 0.00 0.00 0.00 0.00 0.00
0.13 0.07 0.01 0.00 0.00 0.00 0.00 0.00 0.00 0.00 0.00 0.00 0.00 0.00 0.00 0.00 0.00 0.00 0.00 0.00 0.00 0.00 0.00 0.00 0.00 0.00 0.00 0.00 0.00 0.00 0.00 0.00 0.00 0.00 0.00 0.00 0.00 0.00 0.00 0.00 0.00 0.00 0.00
0.05 0.04 0.02 0.01 0.00 0.00 0.00 0.00 0.00 0.00 0.00 0.00 0.00 0.00 0.00 0.00 0.00 0.00 0.00 0.00 0.00 0.00 0.00 0.00 0.00 0.00 0.00 0.00 0.00 0.00 0.00 0.00 0.00 0.00 0.00 0.00 0.00 0.00 0.00 0.00 0.00 0.00 0.00
0.06 0.03 0.02 0.00 0.00 0.00 0.00 0.00 0.00 0.00 0.00 0.00 0.00 0.00 0.00 0.00 0.00 0.00 0.00 0.00 0.00 0.00 0.00 0.00 0.00 0.00 0.00 0.00 0.00 0.00 0.00 0.00 0.00 0.00 0.00 0.00 0.00 0.00 0.00 0.00 0.00 0.00 0.00
0.03 0.01 0.00 0.00 0.00 0.00 0.00 0.00 0.00 0.00 0.00 0.00 0.00 0.00 0.00 0.00 0.00 0.00 0.00 0.00 0.00 0.00 0.00 0.00 0.00 0.00 0.00 0.00 0.00 0.00 0.00 0.00 0.00 0.00 0.00 0.00 0.00 0.00 0.00 0.00 0.00 0.00 0.00
0.00 0.00 0.00 0.00 0.00 0.00 0.00 0.00 0.00 0.00 0.00 0.00 0.00 0.00 0.00 0.00 0.00 0.00 0.00 0.00 0.00 0.00 0.00 0.00 0.00 0.00 0.00 0.00 0.00 0.00 0.00 0.00 0.00 0.00 0.00 0.00 0.00 0.00 0.00 0.00 0.00 0.00 0.00
0.00 0.00 0.00 0.00 0.00 0.00 0.00 0.00 0.00 0.00 0.00 0.00 0.00 0.00 0.00 0.00 0.00 0.00 0.00 0.00 0.00 0.00 0.00 0.00 0.00 0.00 0.00 0.00 0.00 0.00 0.00 0.00 0.00 0.00 0.00 0.00 0.00 0.00 0.00 0.00 0.00 0.00 0.00
0.00 0.00 0.00 0.00 0.00 0.00 0.00 0.00 0.00 0.00 0.00 0.00 0.00 0.00 0.00 0.00 0.00 0.00 0.00 0.00 0.00 0.00 0.00 0.00 0.00 0.00 0.00 0.00 0.00 0.00 0.00 0.00 0.00 0.00 0.00 0.00 0.00 0.00 0.00 0.00 0.00 0.00 0.00
0.00 0.00 0.00 0.00 0.00 0.00 0.00 0.00 0.00 0.00 0.00 0.00 0.00 0.00 0.00 0.00 0.00 0.00 0.00 0.00 0.00 0.00 0.00 0.00 0.00 0.00 0.00 0.00 0.00 0.00 0.00 0.00 0.00 0.00 0.00 0.00 0.00 0.00 0.00 0.00 0.00 0.00 0.00
0.00 0.00 0.00 0.00 0.00 0.00 0.00 0.00 0.00 0.00 0.00 0.00 0.00 0.00 0.00 0.00 0.00 0.00 0.00 0.00 0.00 0.00 0.00 0.00 0.00 0.00 0.00 0.00 0.00 0.00 0.00 0.00 0.00 0.00 0.00 0.00 0.00 0.00 0.00 0.00 0.00 0.00 0.00
0.00 0.00 0.00 0.00 0.00 0.00 0.00 0.00 0.00 0.00 0.00 0.00 0.00 0.00 0.00 0.00 0.00 0.00 0.00 0.00 0.00 0.00 0.00 0.00 0.00 0.00 0.00 0.00 0.00 0.00 0.00 0.00 0.00 0.00 0.00 0.00 0.00 0.00 0.00 0.00 0.00 0.00 0.00
0.00 0.00 0.00 0.00 0.00 0.00 0.00 0.00 0.00 0.00 0.00 0.00 0.00 0.00 0.00 0.00 0.00 0.00 0.00 0.00 0.00 0.00 0.00 0.00 0.00 0.00 0.00 0.00 0.00 0.00 0.00 0.00 0.00 0.00 0.00 0.00 0.00 0.00 0.00 0.00 0.00 0.00 0.00
0.00 0.00 0.00 0.00 0.00 0.00 0.00 0.00 0.00 0.00 0.00 0.00 0.00 0.00 0.00 0.00 0.00 0.00 0.00 0.00 0.00 0.00 0.00 0.00 0.00 0.00 0.00 0.00 0.00 0.00 0.00 0.00 0.00 0.00 0.00 0.00 0.00 0.00 0.00 0.00 0.00 0.00 0.00
0.00 0.00 0.00 0.00 0.00 0.00 0.00 0.00 0.00 0.00 0.00 0.00 0.00 0.00 0.00 0.00 0.00 0.00 0.00 0.00 0.00 0.00 0.00 0.00 0.00 0.00 0.00 0.00 0.00 0.00 0.00 0.00 0.00 0.00 0.00 0.00 0.00 0.00 0.00 0.00 0.00 0.00 0.00
0.00 0.00 0.00 0.00 0.00 0.00 0.00 0.00 0.00 0.00 0.00 0.00 0.00 0.00 0.00 0.00 0.00 0.00 0.00 0.00 0.00 0.00 0.00 0.00 0.00 0.00 0.00 0.00 0.00 0.00 0.00 0.00 0.00 0.00 0.00 0.00 0.00 0.00 0.00 0.00 0.00 0.00 0.00
0.00 0.00 0.00 0.00 0.00 0.00 0.00 0.00 0.00 0.00 0.00 0.00 0.00 0.00 0.00 0.00 0.00 0.00 0.00 0.00 0.00 0.00 0.00 0.00 0.00 0.00 0.00 0.00 0.00 0.00 0.00 0.00 0.00 0.00 0.00 0.00 0.00 0.00 0.00 0.00 0.00 0.00 0.00
0.00 0.00 0.00 0.00 0.00 0.00 0.00 0.00 0.00 0.00 0.00 0.00 0.00 0.00 0.00 0.00 0.00 0.00 0.00 0.00 0.00 0.00 0.00 0.00 0.00 0.00 0.00 0.00 0.00 0.00 0.00 0.00 0.00 0.00 0.00 0.00 0.00 0.00 0.00 0.00 0.00 0.00 0.00
0.00 0.00 0.00 0.00 0.00 0.00 0.00 0.00 0.00 0.00 0.00 0.00 0.00 0.00 0.00 0.00 0.00 0.00 0.00 0.00 0.00 0.00 0.00 0.00 0.00 0.00 0.00 0.00 0.00 0.00 0.00 0.00 0.00 0.00 0.00 0.00 0.00 0.00 0.00 0.00 0.00 0.00 0.00
0.00 0.00 0.00 0.00 0.00 0.00 0.00 0.00 0.00 0.00 0.00 0.00 0.00 0.00 0.00 0.00 0.00 0.00 0.00 0.00 0.00 0.00 0.00 0.00 0.00 0.00 0.00 0.00 0.00 0.00 0.00 0.00 0.00 0.00 0.00 0.00 0.00 0.00 0.00 0.00 0.00 0.00 0.00
0.00 0.00 0.00 0.00 0.00 0.00 0.00 0.00 0.00 0.00 0.00 0.00 0.00 0.00 0.00 0.00 0.00 0.00 0.00 0.00 0.00 0.00 0.00 0.00 0.00 0.00 0.00 0.00 0.00 0.00 0.00 0.00 0.00 0.00 0.00 0.00 0.00 0.00 0.00 0.00 0.00 0.00 0.00
0.00 0.00 0.00 0.00 0.00 0.00 0.00 0.00 0.00 0.00 0.00 0.00 0.00 0.00 0.00 0.00 0.00 0.00 0.00 0.00 0.00 0.00 0.00 0.00 0.00 0.00 0.00 0.00 0.00 0.00 0.00 0.00 0.00 0.00 0.00 0.00 0.00 0.00 0.00 0.00 0.00 0.00 0.00
0.00 0.00 0.00 0.00 0.00 0.00 0.00 0.00 0.00 0.00 0.00 0.00 0.00 0.00 0.00 0.00 0.00 0.00 0.00 0.00 0.00 0.00 0.00 0.00 0.00 0.00 0.00 0.00 0.00 0.00 0.00 0.00 0.00 0.00 0.00 0.00 0.00 0.00 0.00 0.00 0.00 0.00 0.00
0.00 0.00 0.00 0.00 0.00 0.00 0.00 0.00 0.00 0.00 0.00 0.00 0.00 0.00 0.00 0.00 0.00 0.00 0.00 0.00 0.00 0.00 0.00 0.00 0.00 0.00 0.00 0.00 0.00 0.00 0.00 0.00 0.00 0.00 0.00 0.00 0.00 0.00 0.00 0.00 0.00 0.00 0.00
0.00 0.00 0.00 0.00 0.00 0.00 0.00 0.00 0.00 0.00 0.00 0.00 0.00 0.00 0.00 0.00 0.00 0.00 0.00 0.00 0.00 0.00 0.00 0.00 0.00 0.00 0.00 0.00 0.00 0.00 0.00 0.00 0.00 0.00 0.00 0.00 0.00 0.00 0.00 0.00 0.00 0.00 0.00
0.00 0.00 0.00 0.00 0.00 0.00 0.00 0.00 0.00 0.00 0.00 0.00 0.00 0.00 0.00 0.00 0.00 0.00 0.00 0.00 0.00 0.00 0.00 0.00 0.00 0.00 0.00 0.00 0.00 0.00 0.00 0.00 0.00 0.00 0.00 0.00 0.00 0.00 0.00 0.00 0.00 0.00 0.00
0.00 0.00 0.00 0.00 0.00 0.00 0.00 0.00 0.00 0.00 0.00 0.00 0.00 0.00 0.00 0.00 0.00 0.00 0.00 0.00 0.00 0.00 0.00 0.00 0.00 0.00 0.00 0.00 0.00 0.00 0.00 0.00 0.00 0.00 0.00 0.00 0.00 0.00 0.00 0.00 0.00 0.00 0.00
MSLP
1010.80 1011.33 1012.25 1012.70 1013.45 1014.65 1015.66 1015.99 1016.08 1016.69 1017.27 1017.59 1017.25 1017.03 1017.15 1017.44 1017.96 1017.95 1018.07 1017.96 1017.89 1018.00 1017.88 1017.68 1017.55 1017.27 1016.95 1016.51 1016.51 1016.32 1016.02 1015.56 1015.33 1014.47 1013.95 1013.02 1012.23 1011.63 1010.94 1010.55 1010.00 1009.30 1008.93
1010.98 1011.68 1012.29 1012.79 1013.87 1015.25 1015.91 1016.55 1016.82 1017.09 1017.41 1017.56 1017.21 1017.21 1017.90 1018.07 1018.02 1018.12 1018.33 1018.43 1018.41 1018.33 1017.95 1017.98 1017.48 1017.16 1016.45 1016.57 1016.36 1016.17 1015.98 1015.86 1015.92 1014.79 1013.67 1012.71 1012.45 1011.61 1010.87 1010.38 1009.84 1009.19 1008.95
1011.94 1012.55 1013.06 1013.90 1014.59 1015.75 1016.55 1016.93 1017.21 1017.24 1017.35 1017.34 1017.29 1017.64 1017.99 1018.02 1018.33 1018.43 1018.91 1018.95 1018.81 1018.52 1018.09 1017.72 1017.33 1016.75 1016.48 1016.63 1016.31 1016.06 1015.77 1015.48 1015.35 1014.90 1013.59 1012.57 1011.93 1011.27 1010.49 1009.98 1009.55 1009.21 1008.83
1012.81 1013.43 1014.02 1014.84 1015.52 1016.40 1016.99 1017.11 1017.32 1017.42 1017.42 1017.30 1017.71 1018.10 1017.99 1018.24 1018.66 1019.02 1019.45 1019.26 1018.96 1018.61 1018.16 1017.80 1016.99 1016.93 1016.72 1016.30 1015.92 1015.78 1015.81 1015.42 1014.76 1014.11 1013.15 1012.13 1011.63 1010.81 1010.35 1009.75 1009.13 1008.93 1008.64
1013.05 1013.77 1014.68 1015.56 1016.26 1016.78 1017.33 1017.66 1017.89 1017.82 1017.78 1017.88 1018.53 1018.15 1018.45 1019.12 1019.59 1019.65 1019.41 1019.21 1019.21 1018.77 1018.25 1017.31 1017.52 1017.15 1016.35 1016.08 1015.97 1016.19 1015.89 1015.25 1014.13 1013.49 1012.64 1011.91 1011.18 1010.55 1010.20 1009.67 1009.11 1008.59 1008.19
1013.79 1014.92 1015.99 1016.37 1017.15 1017.67 1017.88 1017.97 1018.35 1018.34 1018.49 1018.73 1019.25 1019.07 1019.83 1019.59 1019.99 1019.74 1019.47 1019.69 1019.42 1018.65 1018.26 1018.29 1017.68 1016.72 1016.33 1016.11 1016.24 1015.98 1015.53 1014.69 1013.89 1013.17 1012.37 1011.63 1010.93 1010.41 1010.00 1009.54 1009.15 1008.67 1007.93
1014.22 1015.54 1016.32 1017.09 1017.57 1018.03 1018.07 1018.61 1019.27 1019.22 1019.59 1019.97 1019.65 1019.89 1020.33 1019.78 1020.28 1019.97 1020.06 1019.65 1019.26 1018.99 1019.07 1018.35 1017.53 1017.10 1016.92 1016.75 1016.11 1015.26 1014.68 1014.12 1013.65 1012.93 1012.07 1011.42 1010.71 1010.14 1009.71 1009.19 1008.86 1008.60 1008.23
1015.52 1016.54 1017.10 1016.96 1018.03 1018.80 1018.97 1019.37 1019.67 1019.87 1020.02 1019.96 1019.85 1020.65 1020.32 1020.43 1020.72 1019.97 1020.00 1019.61 1019.45 1019.01 1018.69 1018.19 1017.90 1017.67 1017.10 1016.93 1015.96 1015.02 1014.28 1013.32 1012.94 1012.51 1011.92 1011.22 1010.60 1009.87 1009.49 1009.01 1008.55 1008.24 1007.83
1016.87 1017.59 1018.31 1018.07 1018.36 1019.07 1019.52 1019.72 1020.13 1019.99 1020.43 1020.53 1020.71 1020.81 1020.75 1021.12 1020.76 1020.38 1020.17 1020.03 1019.30 1018.74 1018.70 1018.48 1018.29 1017.82 1017.22 1016.57 1015.84 1014.63 1013.60 1012.89 1012.25 1011.94 1011.27 1010.61 1009.90 1009.26 1008.88 1008.58 1008.13 1007.88 1007.33
1018.22 1018.69 1018.73 1018.92 1019.13 1019.62 1020.59 1020.87 1020.92 1021.15 1021.56 1021.34 1021.47 1021.78 1021.52 1021.57 1021.08 1020.31 1020.54 1019.72 1019.21 1019.31 1019.23 1018.98 1018.32 1017.61 1016.86 1016.13 1015.45 1014.51 1013.50 1012.74 1011.89 1011.07 1010.46 1009.89 1009.43 1008.86 1008.35 1008.01 1007.60 1007.33 1007.05
1019.13 1019.37 1019.62 1019.97 1020.48 1021.09 1021.48 1021.60 1021.94 1022.13 1022.45 1022.39 1022.24 1022.06 1022.00 1021.68 1021.23 1020.63 1020.16 1019.90 1020.07 1019.91 1019.28 1018.69 1017.87 1017.04 1016.41 1015.51 1014.86 1014.18 1013.83 1012.91 1011.83 1011.16 1010.28 1009.54 1009.13 1008.66 1008.22 1007.75 1007.27 1006.85 1006.50
1020.38 1020.33 1020.39 1021.22 1021.65 1021.89 1022.10 1022.37 1022.69 1022.73 1022.86 1022.91 1023.01 1022.79 1022.08 1021.77 1021.35 1020.89 1020.74 1020.55 1020.03 1019.41 1018.95 1018.18 1017.28 1016.40 1015.72 1015.11 1014.45 1013.84 1013.35 1012.67 1011.88 1011.18 1010.47 1009.86 1009.22 1008.56 1008.02 1007.48 1006.87 1006.32 1005.89
1021.23 1021.52 1021.58 1022.10 1022.47 1022.43 1022.53 1023.11 1023.33 1023.28 1023.61 1023.55 1023.13 1023.03 1022.69 1022.22 1022.04 1021.78 1021.16 1020.26 1019.59 1018.98 1018.34 1017.56 1016.72 1016.09 1015.41 1014.85 1014.27 1013.71 1013.20 1012.73 1012.02 1011.30 1010.71 1010.08 1009.51 1008.74 1007.95 1007.18 1006.39 1005.75 1005.37
1022.26 1022.51 1022.50 1022.85 1022.95 1022.73 1023.06 1023.43 1023.51 1023.76 1023.77 1023.78 1023.87 1023.83 1023.42 1022.76 1022.21 1021.77 1021.19 1020.39 1019.53 1018.61 1017.77 1017.17 1016.55 1016.13 1015.55 1015.05 1014.28 1013.83 1013.47 1013.00 1012.23 1011.60 1010.92 1010.24 1009.43 1008.58 1007.78 1007.12 1006.31 1005.51 1005.11
1023.06 1023.07 1023.27 1023.56 1023.57 1023.47 1023.69 1023.80 1023.92 1023.96 1023.83 1024.14 1024.08 1023.67 1023.35 1022.97 1022.31 1021.65 1020.99 1020.11 1019.44 1018.69 1017.87 1017.17 1016.75 1016.27 1015.68 1015.29 1014.71 1014.17 1013.67 1012.91 1012.16 1011.75 1011.03 1010.26 1009.45 1008.62 1007.71 1006.97 1006.22 1005.50 1005.07
1023.33 1023.53 1023.79 1023.94 1023.85 1023.85 1024.21 1024.27 1024.03 1023.98 1023.92 1023.69 1023.41 1023.35 1023.07 1022.51 1021.87 1021.19 1020.70 1020.11 1019.49 1018.83 1018.13 1017.77 1017.44 1017.01 1016.44 1016.05 1015.32 1014.61 1013.94 1013.21 1012.64 1012.03 1011.28 1010.47 1009.63 1008.70 1007.80 1006.89 1006.19 1005.33 1004.88
1023.61 1023.81 1024.07 1024.27 1024.28 1024.41 1024.64 1024.75 1024.85 1024.23 1023.62 1023.43 1023.48 1023.21 1022.75 1022.35 1021.84 1021.40 1020.79 1020.19 1019.73 1019.13 1018.83 1018.52 1018.11 1017.56 1017.10 1016.75 1016.19 1015.59 1014.60 1013.87 1013.25 1012.41 1011.49 1010.59 1009.72 1008.78 1007.88 1006.87 1006.10 1005.41 1004.67
1024.05 1024.17 1024.55 1024.81 1024.97 1025.13 1025.07 1024.98 1024.59 1024.33 1024.41 1024.31 1023.85 1023.57 1023.14 1022.60 1022.08 1021.72 1021.22 1020.58 1020.11 1019.62 1019.52 1019.27 1018.69 1018.11 1017.71 1017.31 1016.81 1015.99 1015.01 1014.15 1013.44 1012.60 1011.66 1010.79 1009.85 1008.82 1007.68 1006.73 1005.94 1005.37 1004.69
1024.07 1024.38 1024.61 1024.83 1025.00 1025.01 1025.07 1025.14 1025.17 1025.19 1025.23 1025.06 1024.70 1024.18 1023.73 1023.01 1022.53 1022.21 1021.80 1021.61 1021.27 1020.83 1020.28 1019.79 1019.39 1018.73 1018.39 1017.97 1017.38 1016.49 1015.71 1014.87 1014.01 1012.97 1011.94 1011.01 1009.92 1008.96 1007.70 1006.68 1005.57 1004.82 1004.51
1024.11 1024.27 1024.52 1024.87 1025.16 1025.33 1025.45 1025.63 1025.81 1025.85 1025.81 1025.67 1025.48 1025.25 1024.57 1023.85 1023.59 1023.32 1022.85 1022.44 1022.11 1021.67 1021.10 1020.69 1020.28 1019.63 1019.11 1018.56 1017.73 1016.91 1016.09 1015.16 1014.21 1013.25 1012.26 1011.26 1010.09 1009.03 1007.79 1006.60 1005.51 1004.52 1004.14
1024.04 1024.31 1024.56 1025.05 1025.41 1025.60 1025.87 1026.22 1026.40 1026.44 1026.43 1026.33 1026.19 1025.77 1025.26 1024.98 1024.75 1024.40 1023.90 1023.29 1022.87 1022.32 1021.86 1021.53 1020.95 1020.37 1019.83 1019.19 1018.27 1017.50 1016.72 1015.80 1014.83 1013.74 1012.65 1011.43 1010.19 1008.96 1007.75 1006.57 1005.38 1004.48 1004.21
1024.31 1024.71 1025.05 1025.42 1025.79 1026.15 1026.50 1026.73 1026.94 1027.03 1027.05 1026.95 1026.75 1026.33 1026.01 1025.74 1025.45 1024.99 1024.45 1023.99 1023.51 1023.09 1022.58 1022.18 1021.63 1021.04 1020.51 1019.77 1019.01 1018.24 1017.37 1016.32 1015.09 1014.01 1012.84 1011.67 1010.41 1009.20 1007.99 1006.67 1005.50 1004.80 1004.46
1024.75 1025.24 1025.75 1026.20 1026.42 1026.76 1027.15 1027.40 1027.54 1027.56 1027.64 1027.55 1027.43 1027.16 1026.77 1026.44 1026.09 1025.61 1025.09 1024.57 1024.07 1023.67 1023.18 1022.66 1022.17 1021.58 1020.91 1020.27 1019.68 1019.02 1018.11 1017.05 1015.92 1014.66 1013.37 1011.97 1010.65 1009.47 1008.34 1007.17 1006.02 1005.28 1005.10
1025.44 1025.91 1026.52 1027.01 1027.32 1027.67 1027.88 1028.05 1028.10 1028.13 1028.19 1028.13 1028.02 1027.78 1027.37 1027.05 1026.67 1026.23 1025.73 1025.09 1024.58 1024.19 1023.69 1023.14 1022.74 1022.15 1021.40 1020.79 1020.14 1019.40 1018.59 1017.58 1016.34 1015.03 1013.71 1012.43 1011.08 1009.72 1008.71 1007.61 1006.65 1006.05 1005.79
1026.37 1026.84 1027.27 1027.68 1028.04 1028.36 1028.57 1028.71 1028.81 1028.83 1028.73 1028.54 1028.28 1028.18 1028.01 1027.61 1027.19 1026.79 1026.12 1025.58 1025.09 1024.65 1024.17 1023.67 1023.24 1022.55 1021.92 1021.37 1020.70 1019.81 1018.86 1017.73 1016.55 1015.34 1013.91 1012.79 1011.65 1010.49 1009.43 1008.39 1007.37 1006.56 1006.29
1027.13 1027.52 1027.89 1028.18 1028.55 1028.82 1029.05 1029.25 1029.41 1029.37 1029.31 1029.17 1028.90 1028.59 1028.42 1028.05 1027.66 1027.25 1026.63 1026.08 1025.61 1025.12 1024.72 1024.19 1023.69 1023.11 1022.44 1021.82 1021.14 1020.27 1019.24 1018.15 1017.01 1015.79 1014.60 1013.46 1012.39 1011.36 1010.31 1009.36 1008.41 1007.59 1006.99
Thickness
5686 5685 5681 5679 5675 5665 5656 5655 5656 5650 5646 5643 5646 5646 5643 5638 5628 5624 5621 5617 5614 5606 5600 5596 5589 5585 5581 5580 5573 5569 5565 5565 5558 5555 5554 5556 5556 5556 5558 5558 5557 5559 5558
5685 5677 5675 5672 5666 5651 5649 5644 5642 5639 5639 5637 5639 5638 5627 5623 5620 5616 5611 5606 5600 5594 5590 5583 5582 5578 5580 5570 5565 5560 5556 5548 5541 5544 5544 5547 5544 5546 5547 5546 5546 5547 5546
5669 5665 5661 5656 5653 5645 5638 5636 5635 5634 5632 5633 5633 5627 5619 5616 5610 5606 5598 5593 5587 5583 5580 5579 5575 5574 5570 5559 5556 5553 5546 5540 5533 5531 5535 5537 5537 5538 5539 5537 5536 5535 5535
5654 5649 5646 5642 5639 5634 5630 5632 5631 5629 5628 5628 5623 5615 5612 5606 5598 5591 5583 5580 5576 5573 5572 5569 5571 5564 5558 5555 5551 5544 5534 5528 5524 5525 5527 5530 5529 5529 5528 5528 5528 5524 5522
5646 5642 5637 5632 5627 5624 5621 5619 5617 5615 5617 5617 5605 5605 5600 5589 5581 5576 5574 5572 5564 5562 5563 5567 5557 5552 5553 5548 5541 5527 5521 5517 5520 5519 5520 5520 5519 5519 5517 5518 5518 5516 5512
5634 5624 5618 5617 5612 5609 5607 5606 5604 5604 5602 5598 5588 5589 5576 5577 5569 5569 5566 5557 5553 5557 5555 5547 5545 5548 5543 5535 5523 5516 5513 5514 5512 5512 5511 5511 5511 5510 5509 5507 5504 5503 5501
5623 5615 5609 5606 5603 5600 5600 5596 5589 5589 5585 5578 5578 5572 5564 5568 5559 5557 5551 5550 5549 5545 5538 5537 5539 5536 5527 5517 5512 5511 5507 5504 5502 5502 5503 5501 5503 5502 5501 5497 5493 5490 5487
5604 5599 5597 5601 5593 5588 5586 5583 5582 5578 5574 5573 5569 5560 5560 5553 5547 5551 5545 5543 5538 5537 5534 5531 5525 5518 5514 5507 5505 5502 5500 5501 5496 5494 5492 5492 5492 5492 5488 5486 5484 5480 5476
5587 5582 5578 5583 5584 5580 5577 5577 5571 5570 5565 5561 5556 5553 5547 5539 5539 5538 5533 5529 5529 5530 5524 5518 5510 5506 5504 5502 5500 5501 5499 5495 5493 5489 5489 5489 5488 5485 5482 5479 5474 5469 5468
5567 5567 5570 5571 5571 5568 5560 5557 5554 5552 5546 5546 5542 5533 5532 5527 5529 5530 5522 5522 5521 5513 5505 5499 5500 5498 5497 5496 5494 5494 5493 5492 5492 5491 5489 5487 5483 5481 5477 5471 5466 5461 5456
5556 5556 5556 5554 5553 5548 5545 5543 5539 5535 5529 5527 5527 5524 5521 5520 5519 5519 5517 5511 5501 5494 5492 5489 5491 5492 5490 5491 5489 5487 5482 5484 5487 5485 5484 5482 5477 5473 5468 5463 5458 5454 5450
5540 5542 5543 5537 5537 5535 5532 5529 5524 5522 5518 5517 5513 5511 5513 5512 5510 5507 5501 5495 5493 5491 5487 5486 5486 5487 5485 5483 5482 5480 5478 5478 5478 5476 5474 5472 5470 5467 5462 5456 5453 5449 5445
5530 5528 5529 5526 5524 5524 5522 5516 5512 5511 5506 5504 5504 5501 5499 5497 5492 5488 5486 5487 5487 5486 5485 5484 5481 5477 5476 5475 5474 5474 5473 5472 5470 5469 5465 5465 5463 5460 5456 5452 5450 5447 5442
5520 5518 5519 5516 5515 5516 5513 5507 5506 5501 5497 5494 5489 5485 5483 5483 5481 5477 5475 5474 5475 5477 5478 5474 5472 5467 5466 5464 5466 5466 5465 5463 5463 5461 5459 5459 5458 5455 5453 5449 5446 5444 5440
5510 5510 5508 5505 5504 5505 5501 5497 5494 5490 5488 5481 5478 5477 5474 5471 5471 5470 5469 5469 5467 5465 5464 5462 5459 5458 5457 5455 5457 5458 5458 5458 5458 5455 5455 5456 5454 5451 5450 5446 5443 5442 5437
5501 5500 5498 5496 5497 5496 5490 5485 5485 5482 5480 5477 5474 5471 5467 5466 5467 5467 5463 5459 5455 5453 5451 5449 5445 5445 5445 5445 5448 5450 5451 5452 5451 5451 5452 5452 5450 5449 5447 5444 5443 5444 5440
5495 5494 5492 5489 5488 5484 5480 5476 5471 5473 5473 5471 5467 5464 5462 5460 5458 5454 5451 5449 5444 5441 5438 5435 5434 5436 5437 5436 5438 5439 5442 5444 5445 5447 5449 5449 5448 5448 5446 5445 5445 5445 5447
5487 5487 5482 5479 5476 5473 5471 5469 5468 5465 5460 5457 5456 5453 5450 5448 5446 5441 5438 5436 5433 5432 5428 5425 5427 5429 5429 5430 5431 5434 5438 5440 5442 5445 5446 5447 5447 5447 5449 5450 5450 5450 5452
5483 5480 5476 5473 5470 5467 5463 5460 5456 5453 5447 5443 5440 5440 5438 5437 5433 5429 5427 5422 5418 5417 5418 5419 5419 5421 5421 5423 5425 5429 5431 5435 5438 5442 5444 5445 5447 5448 5452 5454 5458 5458 5457
5476 5474 5469 5464 5460 5456 5453 5450 5445 5439 5433 5430 5427 5423 5422 5422 5417 5413 5412 5410 5408 5407 5408 5409 5410 5412 5414 5417 5421 5425 5428 5433 5436 5439 5442 5445 5449 5451 5455 5460 5465 5471 5470
5469 5465 5461 5456 5452 5449 5444 5438 5431 5426 5422 5418 5413 5411 5410 5406 5402 5399 5398 5399 5398 5399 5401 5401 5403 5405 5407 5411 5417 5421 5425 5429 5433 5438 5442 5448 5452 5456 5460 5466 5475 5480 5479
5461 5456 5453 5449 5443 5438 5431 5425 5419 5415 5410 5406 5403 5401 5399 5395 5391 5391 5390 5390 5391 5392 5394 5395 5397 5399 5401 5406 5411 5416 5420 5426 5432 5438 5444 5449 5454 5459 5464 5472 5481 5484 5484
5452 5447 5441 5434 5430 5424 5417 5412 5407 5403 5398 5394 5390 5389 5388 5385 5383 5382 5383 5384 5385 5386 5388 5390 5392 5394 5397 5402 5406 5409 5414 5421 5427 5435 5443 5451 5458 5463 5467 5474 5482 5488 5486
5440 5434 5427 5419 5414 5408 5404 5399 5395 5391 5387 5383 5380 5379 5378 5377 5376 5375 5375 5377 5379 5380 5383 5385 5386 5389 5393 5397 5402 5406 5411 5417 5425 5434 5442 5450 5458 5467 5472 5478 5485 5489 5488
5424 5418 5413 5407 5401 5395 5390 5386 5382 5379 5377 5376 5375 5372 5370 5370 5369 5368 5369 5371 5373 5375 5378 5380 5382 5385 5389 5392 5397 5403 5409 5417 5425 5432 5442 5449 5457 5464 5471 5478 5484 5491 5490
5410 5405 5399 5393 5388 5383 5379 5374 5371 5369 5367 5365 5365 5365 5363 5363 5363 5363 5364 5365 5366 5369 5371 5374 5377 5380 5384 5388 5392 5398 5406 5414 5421 5430 5438 5445 5453 5460 5466 5472 5479 5484 5489